リニア彗星

C/2006 M1 ( LINEAR )

English version
Home page
Updated on January 20, 2013

---------------------------------------------------------------------

・ プロフィール

発見日 2006年6月18日
発見光度 18.4等
発見者 Lincoln Laboratory Near-Earth Asteroid Research project

・ 写真集

・ 軌道要素

Epoch 2007 Mar. 1.0 TT = JDT 2454160.5
T 2007 Feb. 13.92645 TT                                 MPC
q   3.5562079            (2000.0)            P               Q
z  +0.0064776      Peri.  122.89490     +0.71590641     +0.27645388
 +/-0.0000011      Node   231.61533     -0.15781676     +0.95857789
e   0.9769645      Incl.   54.87691     +0.68012638     -0.06856880
From 564 observations 2006 June 18-2008 Feb. 26, mean residual 0".5.

・ 星図

・ 光度変化

        m1 = 11.2 + 5 logΔ + 5.0 log r

---------------------------------------------------------------------

軌道要素はM.P.E.C. 2013-A29に掲載されたものです。
星図は StellaNavigator Ver.2.0 for Windows (アストロアーツ 編著 / アスキー出版局刊) で作成したものです。
光度グラフはComet for Windowsで作成したものです。

---------------------------------------------------------------------

Copyright(C) Seiichi Yoshida (comet@aerith.net). All rights reserved.